EW8792 Morava BG current weather conditions

sailwx.info

Wind from 225

Air temperature 22.8° C
Dewpoint 19.7° C

Last reported at 2019-Jun-24 08:00 UTC.
Time now 2019-Jun-24 09:06 UTC

Location: N 43°28' E 025°13'.
View on Google Maps.

See reports from other nearby stations

  
Tides and Currents Weather Stations Pressure Air Temp Water Temp Dewpoint Dewpoint Depression Visibility Wind Speed Wind Dir Waves Ship Positions
date/time (UTC)wind fromknots sea level pressurealtimeterstation pressurevisibilityair tempwater tempwave heightnotes
2019-Jun-24 08:20 338 0 gusting 2 23.9
2019-Jun-24 08:15 333 0 gusting 1 23.9
2019-Jun-24 08:10 356 23.9
2019-Jun-24 08:05 309 22.8
2019-Jun-24 08:00 225 22.8
2019-Jun-24 07:55 177 22.2
2019-Jun-24 07:50 146 22.2
2019-Jun-24 07:45 143 21.7
2019-Jun-24 07:40 121 21.7
2019-Jun-24 07:35 035 0 gusting 1 21.7
2019-Jun-24 07:30 009 21.7
2019-Jun-24 07:25 044 21.1
2019-Jun-24 07:20 099 21.1
2019-Jun-24 07:15 118 0 gusting 1 21.1
2019-Jun-24 07:10 160 21.1
2019-Jun-24 03:40 295 1 gusting 3 19.4
2019-Jun-24 03:35 285 0 gusting 3 19.4
2019-Jun-24 03:30 287 0 gusting 3 19.4
2019-Jun-24 03:25 331 1 gusting 3 19.4
2019-Jun-24 03:20 343 1 gusting 3 18.9
2019-Jun-24 03:15 311 0 gusting 3 18.9
2019-Jun-24 03:10 300 0 gusting 4 18.9
2019-Jun-24 03:05 296 1 gusting 4 18.9
2019-Jun-24 03:00 302 1 gusting 3 18.9
2019-Jun-24 02:55 095 0 gusting 5 18.9
2019-Jun-24 02:50 117 1 gusting 5 18.9
2019-Jun-24 02:45 152 1 gusting 3 18.9
2019-Jun-24 02:40 138 0 gusting 3 19.4
2019-Jun-24 02:35 136 1 gusting 3 19.4
2019-Jun-24 02:30 164 1 gusting 3 19.4
2019-Jun-24 02:25 143 1 gusting 3 19.4
2019-Jun-24 02:20 063 0 gusting 2 19.4
2019-Jun-24 02:15 294 20.0
2019-Jun-23 17:20 122 1 gusting 3 30.6
2019-Jun-23 17:15 117 0 gusting 3 30.6
2019-Jun-23 17:10 112 2 gusting 3 30.6
2019-Jun-23 17:05 121 1 gusting 3 30.6
2019-Jun-23 17:00 125 2 gusting 3 31.1
2019-Jun-23 16:55 106 1 gusting 3 31.1
2019-Jun-23 16:50 098 1 gusting 3 31.1
2019-Jun-23 08:05 104 1 gusting 3 32.2
2019-Jun-23 08:00 107 1 gusting 6 32.2
2019-Jun-23 07:55 110 1 gusting 6 31.7
2019-Jun-23 07:50 106 0 gusting 5 31.7
2019-Jun-23 07:45 123 1 gusting 5 31.7
2019-Jun-23 07:40 153 0 gusting 3 31.7
2019-Jun-23 07:35 124 1 gusting 6 31.1
2019-Jun-23 07:30 106 1 gusting 6 31.1
2019-Jun-23 07:25 109 2 gusting 3 31.7
2019-Jun-23 07:20 126 1 gusting 3 31.7
2019-Jun-23 07:15 136 1 gusting 3 31.7
2019-Jun-23 07:10 128 1 gusting 3 30.6
2019-Jun-23 07:05 131 1 gusting 3 30.6
2019-Jun-23 07:00 129 2 gusting 3 31.1
2019-Jun-23 06:55 129 1 gusting 3 30.6
2019-Jun-23 06:50 126 1 gusting 4 30.6
2019-Jun-23 06:45 121 1 gusting 4 30.0
2019-Jun-23 06:40 132 2 gusting 4 30.6
2019-Jun-23 06:35 144 1 gusting 3 30.6
2019-Jun-23 06:30 146 1 gusting 3 30.6
2019-Jun-23 06:25 129 1 gusting 3 30.6
2019-Jun-23 06:20 106 0 gusting 3 30.6
2019-Jun-23 06:15 086 0 gusting 3 30.0
2019-Jun-23 06:10 103 1 gusting 3 29.4
2019-Jun-23 06:05 133 0 gusting 3 29.4
2019-Jun-23 06:00 115 0 gusting 3 28.9
2019-Jun-23 05:55 130 1 gusting 5 28.3
2019-Jun-23 05:50 124 2 gusting 5 28.3
2019-Jun-23 05:45 114 1 gusting 4 27.2
2019-Jun-23 05:40 112 2 gusting 4 27.2
2019-Jun-23 05:35 117 1 gusting 4 26.7
2019-Jun-23 05:30 136 1 gusting 4 26.7
2019-Jun-23 05:25 142 1 gusting 3 27.2
2019-Jun-23 05:20 150 1 gusting 3 27.2
2019-Jun-23 05:15 147 1 gusting 3 27.2
2019-Jun-23 05:10 131 0 gusting 2 26.7
2019-Jun-23 05:05 133 1 gusting 2 26.7
2019-Jun-23 05:00 140 1 gusting 1 26.7
2019-Jun-23 04:55 111 0 gusting 2 26.1
2019-Jun-23 04:50 110 0 gusting 2 26.7
2019-Jun-23 04:45 129 26.7
2019-Jun-23 04:40 075 1 gusting 1 27.8
2019-Jun-23 04:35 031 27.2
2019-Jun-23 04:30 056 0 gusting 1 27.2
2019-Jun-23 04:25 015 0 gusting 1 27.2
2019-Jun-23 04:20 001 26.7
2019-Jun-23 04:15 086 25.6
2019-Jun-23 04:10 097 23.9
2019-Jun-23 04:05 040 23.9
2019-Jun-23 04:00 327 22.8
2019-Jun-23 03:55 314 0 gusting 1 22.8
2019-Jun-23 03:50 314 1 gusting 1 22.8
2019-Jun-23 03:45 22.8
2019-Jun-23 03:40 22.8
2019-Jun-23 03:35 21.7
2019-Jun-23 03:30 21.1
2019-Jun-23 03:25 20.6
2019-Jun-23 03:20 20.6
2019-Jun-23 03:15 20.0
2019-Jun-23 03:10 19.4
2019-Jun-23 03:05 18.9
2019-Jun-23 03:00 18.9
2019-Jun-23 02:55 18.9
2019-Jun-22 16:55 091 33.3
2019-Jun-22 16:50 023 33.9
2019-Jun-22 16:45 353 33.9
2019-Jun-22 16:40 346 33.9
2019-Jun-22 16:35 330 33.9
2019-Jun-22 16:30 337 33.9
2019-Jun-22 16:25 332 34.4
2019-Jun-22 16:20 307 0 gusting 3 34.4
2019-Jun-22 16:15 317 0 gusting 3 34.4
2019-Jun-22 16:10 013 0 gusting 2 34.4
2019-Jun-22 16:05 026 0 gusting 3 34.4
2019-Jun-22 16:00 349 0 gusting 3 34.4
2019-Jun-22 15:55 344 1 gusting 3 34.4
2019-Jun-22 15:50 353 1 gusting 3 34.4
2019-Jun-22 15:45 013 0 gusting 3 34.4
2019-Jun-22 15:40 345 0 gusting 3 34.4
2019-Jun-22 15:35 310 1 gusting 3 34.4
2019-Jun-22 15:30 334 34.4
2019-Jun-22 15:25 327 1 gusting 3 34.4
2019-Jun-22 15:20 307 1 gusting 5 34.4
2019-Jun-22 15:15 302 1 gusting 5 35.0
2019-Jun-22 15:10 324 2 gusting 5 35.6
2019-Jun-22 15:05 342 0 gusting 3 35.6
2019-Jun-22 15:00 353 0 gusting 3 35.0
2019-Jun-22 14:55 317 1 gusting 6 35.0
2019-Jun-22 14:50 311 1 gusting 6 35.0
2019-Jun-22 14:45 333 2 gusting 6 35.6
2019-Jun-22 14:40 319 0 gusting 5 35.0
2019-Jun-22 14:35 312 1 gusting 5 35.6
2019-Jun-22 14:30 318 1 gusting 3 36.1
2019-Jun-22 14:25 270 1 gusting 3 36.1
2019-Jun-22 14:20 208 0 gusting 3 36.1
2019-Jun-22 14:15 127 35.6
2019-Jun-22 14:10 298 35.6
2019-Jun-22 14:05 294 0 gusting 6 35.6
2019-Jun-22 14:00 300 2 gusting 4 35.6
2019-Jun-22 13:55 319 1 gusting 3 35.6
2019-Jun-22 13:45 293 1 gusting 6 35.0
2019-Jun-22 13:40 324 4 gusting 6 35.6
2019-Jun-22 13:35 330 0 gusting 6 35.6
2019-Jun-22 13:30 319 0 gusting 6 35.6
2019-Jun-22 13:25 309 1 gusting 4 35.0
2019-Jun-22 13:20 310 2 gusting 4 35.0
2019-Jun-22 13:15 041 0 gusting 3 35.0
2019-Jun-22 12:30 350 1 gusting 3 35.6
2019-Jun-22 12:25 323 1 gusting 4 35.0
2019-Jun-22 12:20 327 1 gusting 5 35.0
2019-Jun-22 12:15 211 2 gusting 5 35.0
2019-Jun-22 12:10 147 1 gusting 3 35.0
2019-Jun-22 12:05 045 0 gusting 3 34.4
2019-Jun-22 12:00 017 0 gusting 3 33.3
2019-Jun-22 11:55 049 0 gusting 3 32.2